Kirksville, MO

1:37 AM CDT on October 17, 2017 (GMT -0500)
Kirksville Regional

Weather History for KIRK - October, 2014

Change the Weather History Date:

Monday, October 13, 2014

  Actual Average Record
Temperature  
Mean Temperature 60 °F 54 °F  
Max Temperature 66 °F 65 °F 88 °F (1975)
Min Temperature 53 °F 43 °F 25 °F (1979)
Degree Days  
Heating Degree Days 5 11  
Month to date heating degree days 132 124  
Since 1 July heating degree days 238 231  
Cooling Degree Days 0 0  
Month to date cooling degree days 0 10  
Year to date cooling degree days 955 937  
Growing Degree Days 8 (Base 50)    
Moisture  
Dew Point 58 °F    
Average Humidity 97    
Maximum Humidity 100    
Minimum Humidity 93    
Precipitation  
Precipitation 1.64 in 0.12 in 2.13 in (2012)
Month to date precipitation 3.93 1.42  
Year to date precipitation 42.09 32.94  
Sea Level Pressure  
Sea Level Pressure 29.58 in    
Wind  
Wind Speed 11 mph (NE)    
Max Wind Speed 23 mph    
Max Gust Speed 32 mph    
Visibility 4 miles    
Events Fog , Rain , Thunderstorm    
T = Trace of Precipitation, MM = Missing Value Source: NWS Daily Summary

Daily Weather History Graph

Daily Weather History Graph

Search for Another Location

Airport or City:

Trip Planner

Search our weather history database for the weather conditions in past years. The results will help you decide how hot, cold, wet, or windy it might be!

Date:

Astronomy

Oct. 13, 2014 Rise Set
Actual Time 7:18 AM CDT 6:33 PM CDT
Civil Twilight 6:51 AM CDT 7:00 PM CDT
Nautical Twilight 6:19 AM CDT 7:32 PM CDT
Astronomical Twilight 5:48 AM CDT 8:03 PM CDT
Moon 10:44 PM CDT (10/13) 12:33 PM CDT (10/13)
Length of Visible Light 12h 09m
Length of Day
11h 14m
Waning Gibbous, 70% of the Moon is Illuminated
Oct 13
Waning Gibbous
Oct 15
Last Quarter
Oct 23
New
Oct 30
First Quarter
Nov 6
Full

Hourly Weather History & Observations

Time (CDT) Temp. Dew Point Humidity Pressure Visibility Wind Dir Wind Speed Gust Speed Precip Events Conditions
12:17 AM 55.9 °F 55.9 °F 100% 29.81 in 1.5 mi SE 6.9 mph - N/A   Overcast
12:27 AM 55.9 °F 55.9 °F 100% 29.81 in 2.5 mi SE 8.1 mph - N/A   Overcast
12:36 AM 55.9 °F 55.9 °F 100% 29.80 in 3.0 mi ESE 5.8 mph - N/A   Overcast
12:46 AM 55.9 °F 55.9 °F 100% 29.80 in 3.0 mi SE 6.9 mph - N/A   Overcast
12:55 AM 55.9 °F 55.9 °F 100% 29.81 in 3.0 mi ESE 5.8 mph - N/A   Overcast
1:29 AM 55.9 °F 55.9 °F 100% 29.80 in 3.0 mi SE 6.9 mph - N/A   Overcast
1:40 AM 55.9 °F 55.9 °F 100% 29.80 in 2.5 mi SE 6.9 mph - N/A   Overcast
1:55 AM 55.9 °F 55.9 °F 100% 29.82 in 2.0 mi SE 6.9 mph - N/A   Overcast
2:12 AM 55.9 °F 55.9 °F 100% 29.79 in 3.0 mi ESE 9.2 mph - N/A   Overcast
2:22 AM 55.9 °F 55.9 °F 100% 29.79 in 2.0 mi ESE 10.4 mph - N/A   Overcast
2:30 AM 55.9 °F 55.9 °F 100% 29.79 in 1.5 mi ESE 8.1 mph - N/A   Overcast
2:44 AM 55.9 °F 55.9 °F 100% 29.79 in 2.0 mi ESE 8.1 mph - 0.00 in   Overcast
2:55 AM 55.9 °F 55.9 °F 100% 29.79 in 2.5 mi ESE 8.1 mph - 0.00 in   Overcast
3:07 AM 55.9 °F 55.9 °F 100% 29.77 in 3.0 mi East 6.9 mph - N/A   Overcast
3:55 AM 57.0 °F 57.0 °F 100% 29.77 in 2.5 mi East 6.9 mph - N/A   Overcast
4:18 AM 57.0 °F 57.0 °F 100% 29.75 in 1.5 mi Calm Calm - N/A   Overcast
4:41 AM 57.0 °F 57.0 °F 100% 29.75 in 0.5 mi ESE 5.8 mph - N/A Fog Fog
4:55 AM 57.0 °F 57.0 °F 100% 29.74 in 0.5 mi East 6.9 mph - N/A Fog Fog
5:55 AM 57.0 °F 57.0 °F 100% 29.74 in 0.5 mi East 8.1 mph - N/A Fog Fog
6:55 AM 57.0 °F 57.0 °F 100% 29.74 in 0.5 mi ENE 5.8 mph - 0.00 in Fog , Rain Light Rain
7:22 AM 57.0 °F 57.0 °F 100% 29.73 in 1.0 mi East 8.1 mph - 0.02 in Rain Light Rain
7:55 AM 57.0 °F 57.0 °F 100% 29.71 in 1.0 mi ENE 11.5 mph - 0.03 in Rain Light Rain
8:05 AM 57.2 °F 57.2 °F 100% 29.70 in 3.0 mi ENE 11.5 mph - N/A Rain Light Rain
8:42 AM 57.0 °F 57.0 °F 100% 29.71 in 2.5 mi ENE 5.8 mph - 0.02 in Rain , Thunderstorm Rain
8:51 AM 57.2 °F 57.2 °F 100% 29.71 in 1.5 mi ENE 5.8 mph - 0.08 in Rain , Thunderstorm Rain
8:55 AM 57.2 °F 57.2 °F 100% 29.72 in 2.0 mi East 6.9 mph - N/A Rain , Thunderstorm Light Rain
9:01 AM 57.0 °F 57.0 °F 100% 29.73 in 1.8 mi East 10.4 mph - 0.02 in Rain Rain
9:23 AM 57.0 °F 57.0 °F 100% 29.71 in 1.8 mi ENE 6.9 mph - 0.24 in Rain Rain
9:31 AM 57.0 °F 57.0 °F 100% 29.70 in 2.5 mi ENE 8.1 mph - 0.27 in Rain Rain
9:34 AM 57.0 °F 57.0 °F 100% 29.69 in 3.0 mi NE 8.1 mph - 0.27 in Rain Rain
9:43 AM 57.0 °F 57.0 °F 100% 29.68 in 4.0 mi NE 10.4 mph - 0.29 in Rain Light Rain
9:55 AM 57.0 °F 57.0 °F 100% 29.68 in 8.0 mi NE 10.4 mph - 0.30 in Rain Light Rain
10:17 AM 57.0 °F 57.0 °F 100% 29.65 in 4.0 mi NE 13.8 mph - 0.05 in Rain Light Rain
10:44 AM 57.0 °F 57.0 °F 100% 29.62 in 1.8 mi NE 13.8 mph - 0.14 in Rain Heavy Rain
10:55 AM 57.0 °F 57.0 °F 100% 29.61 in 2.5 mi NE 13.8 mph - 0.19 in Rain Rain
11:02 AM 57.0 °F 57.0 °F 100% 29.59 in 4.0 mi NE 10.4 mph - 0.03 in Rain Rain
11:24 AM 57.0 °F 57.0 °F 100% 29.58 in 1.8 mi ENE 10.4 mph - 0.11 in Rain Heavy Rain
11:37 AM 57.9 °F 57.0 °F 97% 29.57 in 3.0 mi ENE 11.5 mph 23.0 mph 0.18 in Rain Rain
11:55 AM 57.9 °F 57.9 °F 100% 29.55 in 4.0 mi NE 11.5 mph - 0.22 in Rain Light Rain
12:13 PM 59.0 °F 57.9 °F 96% 29.54 in 1.8 mi ENE 15.0 mph 24.2 mph 0.04 in Rain Rain
12:33 PM 59.0 °F 59.0 °F 100% 29.53 in 2.0 mi Variable 5.8 mph - 0.13 in Rain Rain
12:41 PM 60.1 °F 59.0 °F 96% 29.52 in 10.0 mi North - - 0.13 in Rain Light Rain
12:55 PM 60.1 °F 59.0 °F 96% 29.52 in 8.0 mi NE 9.2 mph - 0.14 in Rain Light Rain
1:07 PM 60.1 °F 59.0 °F 96% 29.51 in 3.0 mi East 9.2 mph - 0.01 in Rain Light Rain
1:31 PM 60.1 °F 60.1 °F 100% 29.48 in 2.0 mi NE 12.7 mph - 0.02 in Rain Light Rain
1:38 PM 60.1 °F 60.1 °F 100% 29.47 in 1.5 mi NE 12.7 mph - 0.03 in Rain Light Rain
1:46 PM 60.1 °F 60.1 °F 100% 29.47 in 3.0 mi NE 10.4 mph - 0.04 in Rain Light Rain
1:55 PM 61.0 °F 60.1 °F 97% 29.47 in 9.0 mi ENE 8.1 mph - 0.04 in Rain Light Rain
2:55 PM 64.4 °F 62.6 °F 94% 29.41 in 10.0 mi NNE 10.4 mph - N/A   Mostly Cloudy
3:02 PM 64.0 °F 63.0 °F 96% 29.42 in 10.0 mi Variable 4.6 mph - N/A   Mostly Cloudy
3:19 PM 64.9 °F 63.0 °F 93% 29.42 in 10.0 mi NE 6.9 mph - N/A   Overcast
3:30 PM 64.0 °F 63.0 °F 96% 29.42 in 10.0 mi ENE 6.9 mph - N/A   Overcast
3:55 PM 64.9 °F 64.0 °F 97% 29.42 in 10.0 mi East 5.8 mph - N/A   Overcast
4:09 PM 63.0 °F 62.1 °F 97% 29.42 in 10.0 mi NW 6.9 mph - 0.00 in Rain Light Rain
4:55 PM 63.0 °F 62.1 °F 97% 29.42 in 10.0 mi WNW 5.8 mph - 0.00 in   Overcast
5:10 PM 62.1 °F 61.0 °F 96% 29.42 in 2.5 mi NW 8.1 mph - 0.02 in Rain Light Rain
5:17 PM 61.0 °F 61.0 °F 100% 29.42 in 8.0 mi NNW 6.9 mph - 0.02 in Rain Light Rain
5:31 PM 61.0 °F 60.1 °F 97% 29.41 in 1.8 mi NNW 4.6 mph - 0.05 in Rain Light Rain
5:36 PM 61.0 °F 60.1 °F 97% 29.41 in 3.0 mi North 6.9 mph - 0.06 in Rain Light Rain
5:43 PM 60.1 °F 60.1 °F 100% 29.41 in 2.5 mi NW 8.1 mph - 0.06 in Rain Rain
5:52 PM 60.8 °F 60.8 °F 100% 29.42 in 1.8 mi West 8.1 mph - 0.08 in Rain Light Rain
5:55 PM 60.1 °F 59.0 °F 96% 29.42 in 1.5 mi NNW 4.6 mph - 0.09 in Rain Rain
6:01 PM 59.0 °F 59.0 °F 100% 29.41 in 2.0 mi NW 8.1 mph - 0.03 in Rain Light Rain
6:09 PM 59.0 °F 59.0 °F 100% 29.41 in 8.0 mi NW 6.9 mph - 0.03 in Rain Light Rain
6:17 PM 59.0 °F 57.9 °F 96% 29.41 in 5.0 mi NW 6.9 mph - 0.04 in Rain Light Rain
6:29 PM 57.9 °F 57.0 °F 97% 29.41 in 1.8 mi NW 11.5 mph 16.1 mph 0.05 in Rain Heavy Rain
6:39 PM 57.9 °F 57.0 °F 97% 29.41 in 3.0 mi NNW 12.7 mph - 0.10 in Rain Light Rain
6:55 PM 57.0 °F 57.0 °F 100% 29.42 in 10.0 mi NNW 10.4 mph - 0.10 in   Overcast
7:04 PM 57.0 °F 55.9 °F 96% 29.42 in 10.0 mi NNW 13.8 mph - N/A   Overcast
7:19 PM 57.0 °F 55.9 °F 96% 29.41 in 10.0 mi NNW 16.1 mph 23.0 mph N/A   Overcast
7:30 PM 57.0 °F 55.9 °F 96% 29.42 in 10.0 mi NNW 15.0 mph - N/A   Overcast
7:40 PM 57.0 °F 55.0 °F 93% 29.42 in 1.8 mi NNW 16.1 mph 23.0 mph 0.06 in Rain Heavy Rain
7:55 PM 55.9 °F 55.0 °F 97% 29.43 in 2.5 mi NNW 13.8 mph 24.2 mph 0.23 in Rain Rain
8:14 PM 55.9 °F 54.0 °F 93% 29.42 in 4.0 mi NNW 19.6 mph 25.3 mph 0.07 in Rain Light Rain
8:55 PM 55.0 °F 54.0 °F 96% 29.44 in 6.0 mi North 19.6 mph 25.3 mph 0.18 in Rain Light Rain
9:15 PM 55.0 °F 53.1 °F 93% 29.43 in 9.0 mi North 20.7 mph 26.5 mph 0.01 in Rain Light Rain
9:22 PM 54.0 °F 53.1 °F 97% 29.43 in 6.0 mi NNW 18.4 mph 28.8 mph 0.02 in Rain Light Rain
9:55 PM 53.6 °F 53.6 °F 100% 29.43 in 10.0 mi North 13.8 mph 27.6 mph N/A   Overcast
10:55 PM 54.0 °F 52.0 °F 93% 29.46 in 10.0 mi North 18.4 mph 25.3 mph N/A   Overcast
11:55 PM 54.0 °F 52.0 °F 93% 29.46 in 10.0 mi North 16.1 mph 24.2 mph N/A   Overcast